Find Starlink 32406

NORAD ID: 61545 Int'l Des: 2024-184 Owner: SPXS Country: US Constellation: starlink operational
LEOCIRCULAR

当前视图

正在加载3D地球...

About Starlink 32406

Starlink 32406 (NORAD 61545) is a starlink constellation satellite (v2 mini) launched Oct 15, 2024 by SPXS of US. It operates in LEO, CIRCULAR orbit with a mass of 730.00 kg.

关于 Starlink 32406

正在加载描述...

即将过境

Passes for default location (London). Set your location on the main map for personalized predictions.

高度历史

Loading altitude history...

两行轨道根数

1 61545U 24184P 26171.43511352 -.00003398 00000-0 -89444-4 0 9999
2 61545 53.1611 256.2854 0001257 95.3090 264.8056 15.34406838 94245
Epoch: Jun 20, 2026 • Age: 12 hours

当前状态

高度 478.6 km
速度 7.63 km/s
星下点 -44.85°S, 123.86°W
发射日期 Oct 15, 2024
运行时间 1.6 years
类型 internet

技术详情

分类 Payload
质量 730.00 kg
干质量 700.00 kg
总质量 730.00 kg
长度 0.30 m
直径 4.10 m
跨度 29.00 m
形状 Box + pan
制造商 SPXS
平台类型 Starlink V2M
阶段状态 In Orbit
所有者/国家 SPXS/US

Most Searched